logo
Rechercher aéroport 
image banner adimage banner adimage banner ad
image banner ad

CA72 - Community Memorial Hospital

Situé à Ventura, United States

ICAO - CA72, IATA -

Données fournies par Airmate  

Information générale

Coordonnées: N34°16'29" W119°15'33"
Élévation : 175 feet MSL.
Variation magnétique : 14° East
Voir autres Aéroports à California

Données opérationnelles

Special qualification required
Heure actuelle UTC:
Heure actuelle locale:
Météo à : KOXR - Oxnard ( 9 km )
METAR: KOXR 261551Z 00000KT 7SM FEW007 19/17 A2993 RMK AO2 SLP134 T01940172
TAF: KOXR 261125Z 2612/2712 29005KT P6SM SKC FM261600 26006KT P6SM SKC FM261900 26012KT P6SM SKC FM270300 28006KT P6SM SKC FM270800 VRB03KT P6SM SKC
Voir NOTAMs / SUP AIP / TFR affectant cet aéroport [VIEW]
Fréquences de communication: [VIEW]

Pistes:

Coordonnées de l'aéroport

Adresse: Ventura United States

Vue satellite de CA72